Weather History for Valdosta Regional, GA

Change the Weather History Date:

Monday, March 4, 2013

  Actual Average Record
Temperature  
Mean Temperature 49 °F 58 °F  
Max Temperature 66 °F 71 °F 84 °F (1997)
Min Temperature 31 °F 45 °F 28 °F (2009)
Degree Days  
Heating Degree Days 16 8  
Month to date heating degree days 80 32  
Since 1 July heating degree days 949 1412  
Cooling Degree Days 0 1  
Month to date cooling degree days 0 4  
Year to date cooling degree days 77 14  
Moisture  
Dew Point 27 °F    
Average Humidity 52    
Maximum Humidity 85    
Minimum Humidity 19    
Precipitation  
Precipitation 0.00 in - 1.20 in (2001)
Month to date precipitation 0.00  
Year to date precipitation 6.15  
Sea Level Pressure  
Sea Level Pressure 30.20 in    
Wind  
Wind Speed 2 mph (NNW)    
Max Wind Speed 12 mph    
Max Gust Speed 14 mph    
Visibility 10 miles    
Events      
T = Trace of Precipitation, MM = Missing Value Source: NWS Daily Summary

Daily Weather History Graph

Daily Weather History Graph

Search for Another Location

Airport:

Trip Planner

Search our weather history database for the weather conditions in past years. The results will help you decide how hot, cold, wet, or windy it might be!

Date:

Astronomy

Mar. 04, 2013 Rise Set
Actual Time 6:55 AM EST 6:34 PM EST
Civil Twilight 6:31 AM EST 6:58 PM EST
Nautical Twilight 6:03 AM EST 7:26 PM EST
Astronomical Twilight 5:35 AM EST 7:54 PM EST
Moon 12:48 AM EST (3/4) 11:31 AM EST (3/4)
Length of Visible Light 12h 26m
Length of Day
11h 38m
Waning Gibbous, 52% of the Moon is Illuminated
Mar 4
Waning Gibbous
Mar 4
Last Quarter
Mar 11
New
Mar 19
First Quarter
Mar 27
Full

Hourly Weather History & Observations

Time (EST) Temp. Dew Point Humidity Pressure Visibility Wind Dir Wind Speed Gust Speed Precip Events Conditions
12:53 AM 33.1 °F 27.0 °F 78% 30.17 in 10.0 mi Calm Calm - N/A   Clear
1:53 AM 32.0 °F 27.0 °F 82% 30.18 in 10.0 mi Calm Calm - N/A   Clear
2:53 AM 32.0 °F 27.0 °F 82% 30.19 in 10.0 mi Calm Calm - N/A   Clear
3:53 AM 32.0 °F 26.1 °F 79% 30.19 in 10.0 mi Calm Calm - N/A   Clear
4:53 AM 32.0 °F 26.1 °F 79% 30.21 in 10.0 mi Calm Calm - N/A   Clear
5:53 AM 30.9 °F 26.1 °F 82% 30.22 in 10.0 mi Calm Calm - N/A   Clear
6:53 AM 32.0 °F 27.0 °F 82% 30.23 in 10.0 mi Calm Calm - N/A   Clear
7:53 AM 36.0 °F 30.0 °F 79% 30.23 in 10.0 mi Calm Calm - N/A   Clear
8:53 AM 46.9 °F 24.1 °F 41% 30.27 in 10.0 mi North 9.2 mph - N/A   Clear
9:53 AM 51.1 °F 21.0 °F 31% 30.27 in 10.0 mi North 8.1 mph - N/A   Clear
10:53 AM 55.0 °F 19.0 °F 24% 30.26 in 10.0 mi North 4.6 mph - N/A   Clear
11:53 AM 57.9 °F 18.0 °F 21% 30.24 in 10.0 mi Calm Calm - N/A   Clear
12:53 PM 60.1 °F 19.0 °F 20% 30.23 in 10.0 mi Calm Calm - N/A   Clear
1:53 PM 62.1 °F 19.9 °F 20% 30.19 in 10.0 mi Calm Calm - N/A   Clear
2:53 PM 64.0 °F 24.1 °F 22% 30.17 in 10.0 mi Variable 5.8 mph - N/A   Clear
3:53 PM 64.9 °F 26.1 °F 23% 30.16 in 10.0 mi Variable 4.6 mph - N/A   Clear
4:53 PM 64.9 °F 26.1 °F 23% 30.15 in 10.0 mi Calm Calm - N/A   Partly Cloudy
5:53 PM 60.1 °F 30.0 °F 32% 30.16 in 10.0 mi Calm Calm - N/A   Clear
6:53 PM 53.1 °F 35.1 °F 50% 30.16 in 10.0 mi Calm Calm - N/A   Clear
7:53 PM 50.0 °F 36.0 °F 59% 30.16 in 10.0 mi Calm Calm - N/A   Clear
8:53 PM 52.0 °F 34.0 °F 50% 30.17 in 10.0 mi SSW 3.5 mph - N/A   Clear
9:53 PM 52.0 °F 32.0 °F 47% 30.18 in 10.0 mi SSW 3.5 mph - N/A   Clear
10:53 PM 48.0 °F 34.0 °F 58% 30.17 in 10.0 mi Calm Calm - N/A   Clear
11:53 PM 46.0 °F 33.1 °F 61% 30.16 in 10.0 mi Calm Calm - N/A   Clear